Location: Sungai Bunut
(2.6333°N, 113.7333°E)
Time: 11:06:02
(UTC+00:00)

Transit 2A - Pass Details

Date: 06 December 2023
Orbit: 599 x 953 km, 66.7° (Epoch: 01 March)

Event Time Altitude Azimuth Distance (km) Brightness Sun altitude
Rises 05:42:52 0° 189° (S) 3,539 9.9 57.1°
Reaches altitude 10° 05:45:33 10° 184° (S) 2,555 9.3 56.7°
Maximum altitude 05:51:14 49° 110° (ESE) 1,073 7.3 55.8°
Drops below altitude 10° 05:56:25 10° 36° (NE) 2,326 8.3 54.9°
Sets 05:58:46 0° 31° (NNE) 3,194 8.9 54.5°
